Regional Weather Roundup
Issued by NWS

Home | Current Version | Previous Version | Text Only | Print | Product List | Glossary Off
Versions: 1 2 3 4 5 6 7 8 9 10 11 12 13 14 15 16 17 18 19 20 21 22 23 24 25 26 27 28 29 30 31 32 33 34 35 36 37 38 39 40 41 42 43 44 45 46 47 48 49 50

000
ASUS45 KBOU 291507
RWRCO

WEATHER ROUNDUP FOR COLORADO
NATIONAL WEATHER SERVICE DENVER/BOULDER CO
900 AM MDT WED MAR 29 2017

NOTE: "FAIR" INDICATES FEW OR NO CLOUDS BELOW 12000 FEET WITH NO
SIGNIFICANT WEATHER AND/OR OBSTRUCTIONS TO VISIBILITY.

COZ001>005-013-030-031-291600-
...NORTHWEST COLORADO...

CITY           SKY/WX    TMP DP  RH WIND       PRES   REMARKS
CRAIG          PTSUNNY   36  28  73 NE3       30.20R
HAYDEN         CLOUDY    30  25  80 E3        30.20S
MEEKER         CLOUDY    33  31  92 CALM      30.19S
MOUNT WERNER   NOT AVBL
STEAMBOAT SPGS PTSUNNY   31  28  90 CALM      30.18S
WALDEN         NOT AVBL
$$

COZ006>008-011-291600-
...WEST CENTRAL VALLEYS...

CITY           SKY/WX    TMP DP  RH WIND       PRES   REMARKS
GRAND JUNCTION FAIR      47  33  58 N5        30.15R
MONTROSE       FAIR      40  32  73 SE6       30.17R
EAGLE          MOSUNNY   43  28  56 CALM      30.17R
RIFLE          FAIR      42  33  70 E5        30.17R
DELTA          FAIR      44  33  66 NE6       30.14R
NUCLA          FAIR      43  28  56 S7        30.17R
$$

COZ017>023-064>068-291600-
...SOUTHWEST COLORADO...

CITY           SKY/WX    TMP DP  RH WIND       PRES   REMARKS
DURANGO        FAIR      38  33  82 CALM      30.01R
CORTEZ         FAIR      47  29  49 VRB7      30.06R
PAGOSA SPRINGS FAIR      35  33  91 CALM      30.04R
TELLURIDE      NOT AVBL
WOLF CREEK PAS CLOUDY    21  21 100 N13G23    30.13R WCI   9
$$

COZ009-010-012-014-032>034-037-058>063-291600-
...CENTRAL COLORADO...

CITY           SKY/WX    TMP DP  RH WIND       PRES   REMARKS
ASPEN          CLOUDY    35  28  75 CALM      30.14R
BUENA VISTA    FAIR      39  26  59 NW12      30.08R
COPPER MTN     CLOUDY    23  18  80 MISG      30.15R
BERTHOUD PASS  CLOUDY    14   3  62 N14G26    30.13R WCI  -1
COTTONWOOD PAS FAIR      34  23  64 CALM      30.10R
GUNNISON       FAIR      35  29  78 W6        30.12R WCI  30
KREMMLING      PTSUNNY   43  27  52 NW9G18    30.17R
LEADVILLE      CLOUDY    26  19  74 N10       30.12R WCI  16
MONARCH PASS     N/A     21  19  93 MISG      30.22R
SALIDA         FAIR      36  33  88 E6        30.15R
SUNLIGHT       FAIR      21  19  93 N3        30.22S
WILKERSON PASS CLOUDY   N/A N/A N/A N14G31    30.12S
$$

COZ069>075-291600-
...SAN LUIS VALLEY/SANGRE DE CRISTO MOUNTAINS...

CITY           SKY/WX    TMP DP  RH WIND       PRES   REMARKS
ALAMOSA        CLOUDY    36  30  79 N13       30.03R
LA VETA PASS   NOT AVBL
SAGUACHE       FAIR      39  27  60 NW15      30.05S
$$

COZ035-036-038>040-291600-
...NORTHERN COLORADO FRONT RANGE...

CITY           SKY/WX    TMP DP  RH WIND       PRES   REMARKS
DENVER INTL AP CLOUDY    38  35  89 N13       30.11R
DMNS CITY PARK   N/A     39  36  87 N10       30.12S
AURORA         CLOUDY    36  36 100 N9        30.12R
FRONT RANGE AP CLOUDY    39  37  93 N13       30.12R
ERIE MUNI ARPT CLOUDY    40  37  89 NW5       30.12S
BOULDER MUN AP PTSUNNY   39  36  87 CALM      30.12S
CENTENNIAL     DRIZZLE   36  36 100 N12       30.11R
BROOMFIELD     CLOUDY    39  37  93 NW6       30.12
FORT COLLINS   PTSUNNY   42  36  79 NW6       30.12S
LONGMONT       CLOUDY    43  37  79 CALM      30.14S
$$

COZ041-046-047-076>085-087-088-291600-
...PIKES PEAK/PALMER DIVIDE AND SOUTHERN FOOTHILLS...

CITY           SKY/WX    TMP DP  RH WIND       PRES   REMARKS
COLO. SPRINGS  FLURRIES  38  30  73 N28G37    30.06R
A. F. ACADEMY  FLURRIES  34  34  99 N18G26    30.07R WCI  23
SCHRIEVER AFB  PTSUNNY   37  32  82 N20G29    30.06R
ELLICOTT       CLOUDY   N/A N/A N/A N23G35    30.03R
FALCON         CLOUDY    34  31  91 N21G29    30.06R WCI  22
FORT CARSON    CLOUDY    41  30  65 N29G36    30.04R
LIMON          MIX PCPN  34  34 100 N20       30.06S FOG     WCI  23
MONUMENT HILL  FOG       30  30 100 N17G24    30.10R VSB 1/4 WCI  18
TRINIDAD       LGT SNOW  34  32  92 N14G20    30.05R FOG     WCI  25
$$

COZ042>045-048>051-090-091-291600-
...NORTHEAST COLORADO...

CITY           SKY/WX    TMP DP  RH WIND       PRES   REMARKS
GREELEY ARPT   CLOUDY    42  37  82 N8        30.13R
AKRON          CLOUDY    36  34  92 N15       30.08R
BURLINGTON     LGT RAIN  39  38  96 N26       30.00S
WRAY           NOT AVBL
STERLING       CLOUDY    39  37  93 N8        30.09R
HOLYOKE        CLOUDY    41  37  87 N13       30.09R
FORT MORGAN    CLOUDY    39  37  90 N12G17    30.11S
$$

COZ086-089-092>099-291600-
...SOUTHEAST COLORADO...

CITY           SKY/WX    TMP DP  RH WIND       PRES   REMARKS
PUEBLO         LGT RAIN  43  35  73 E3        30.07R
LA JUNTA       LGT RAIN  41  37  86 N14       30.04R
LAMAR          CLOUDY    40  37  89 N15       29.98S
SPRINGFIELD      N/A     37  36  96 N30G41    29.92S
$$



USA.gov is the U.S. government's official web portal to all federal, state and local government web resources and services.